WetterOnline ( http://www.wetteronline.de )

Wetter aktuell Altmark

Aktuelles Wetter: Seehausen (23m)

6-stündlich | Neueste Meldungen
Ortszeit Temperatur Wetter
So, 25.02. 7:00 -10.9° C wolkenlos
So, 25.02. 1:00 -7.2° C wolkenlos
Sa, 24.02. 19:00 -2.8° C wolkenlos
Sa, 24.02. 13:00 0.4° C leicht bewölkt
Sa, 24.02. 7:00 -2.1° C bedeckt
Sa, 24.02. 1:00 -5.4° C fast wolkenlos
Fr, 23.02. 19:00 -2.9° C wolkig
Fr, 23.02. 13:00 -0.1° C wolkenlos
Ortszeit Temperatur Wetter
So, 25.02. 8:30 -7.7° C wolkenlos
So, 25.02. 8:20 -7.7° C wolkenlos
So, 25.02. 8:10 -8.5° C wolkenlos
So, 25.02. 8:00 -9.4° C leicht bewölkt
So, 25.02. 7:50 -9.4° C leicht bewölkt
So, 25.02. 7:40 -10.0° C leicht bewölkt
So, 25.02. 7:30 -10.9° C wolkenlos
So, 25.02. 7:00 -10.9° C wolkenlos
So, 25.02. 6:30 -10.6° C wolkenlos
So, 25.02. 6:00 -10.3° C fast wolkenlos
So, 25.02. 5:30 -10.4° C fast wolkenlos
Ortszeit Relative Feuchte Sichtweite
So, 25.02. 7:00 91% 35 km
So, 25.02. 1:00 76% 60 km
Sa, 24.02. 19:00 61% 70 km
Sa, 24.02. 13:00 50% 55 km
Sa, 24.02. 7:00 84% 22 km
Sa, 24.02. 1:00 84% 16 km
Fr, 23.02. 19:00 71% 18 km
Fr, 23.02. 13:00 55% 13 km
Ortszeit Relative Feuchte Sichtweite
So, 25.02. 8:30 85% 35 km
So, 25.02. 8:20 85% -
So, 25.02. 8:10 85% -
So, 25.02. 8:00 87% 35 km
So, 25.02. 7:50 87% -
So, 25.02. 7:40 90% -
So, 25.02. 7:30 92% 26 km
So, 25.02. 7:00 91% 35 km
So, 25.02. 6:30 90% 35 km
So, 25.02. 6:00 90% 40 km
So, 25.02. 5:30 89% 40 km
Ortszeit Niederschlagsmenge Niederschlagsart
So, 25.02. 7:00 0.0 l/m2 in 12 Std. -
So, 25.02. 1:00 0.0 l/m2 in 6 Std. -
Sa, 24.02. 19:00 0.1 l/m2 in 12 Std. -
Sa, 24.02. 13:00 0.1 l/m2 in 6 Std. Schnee
Sa, 24.02. 7:00 0.1 l/m2 in 12 Std. Schnee
Sa, 24.02. 1:00 0.0 l/m2 in 6 Std. -
Fr, 23.02. 19:00 0.0 l/m2 in 12 Std. -
Fr, 23.02. 13:00 0.0 l/m2 in 6 Std. -
Ortszeit Niederschlagsmenge Niederschlagsart
So, 25.02. 8:30 0.0 l/m2 in 1 Std. -
So, 25.02. 8:20 keine Meldung -
So, 25.02. 8:10 keine Meldung -
So, 25.02. 8:00 0.0 l/m2 in 1 Std. -
So, 25.02. 7:50 keine Meldung -
So, 25.02. 7:40 keine Meldung -
So, 25.02. 7:30 0.0 l/m2 in 1 Std. -
So, 25.02. 7:00 0.0 l/m2 in 1 Std. -
So, 25.02. 6:30 0.0 l/m2 in 1 Std. -
So, 25.02. 6:00 0.0 l/m2 in 1 Std. -
So, 25.02. 5:30 0.0 l/m2 in 1 Std. -
Ortszeit Stärke Spitze Richtung
km/h Bft. km/h Grad Sektor
So, 25.02. 7:00 4 1 11 290° W
So, 25.02. 1:00 7 2 32 60° NO
Sa, 24.02. 19:00 20 4 43 60° NO
Sa, 24.02. 13:00 22 4 43 60° NO
Sa, 24.02. 7:00 13 3 17 30° NO
Sa, 24.02. 1:00 6 1 17 70° O
Fr, 23.02. 19:00 13 3 28 40° NO
Fr, 23.02. 13:00 18 3 25 60° NO
Ortszeit Stärke Spitze Richtung
km/h Bft. km/h Grad Sektor
So, 25.02. 8:30 2 1 4 10° N
So, 25.02. 8:20 2 1 - 10° N
So, 25.02. 8:10 4 1 - 310° NW
So, 25.02. 8:00 4 1 7 360° N
So, 25.02. 7:50 4 1 - 360° N
So, 25.02. 7:40 4 1 - 320° NW
So, 25.02. 7:30 2 1 6 300° NW
So, 25.02. 7:00 4 1 4 290° W
So, 25.02. 6:30 0 0 4 - -
So, 25.02. 6:00 4 1 4 330° NW
So, 25.02. 5:30 2 1 2 300° NW
Ortszeit Untergrenze Bedeckung Gattung
total tief tief mittel hoch
So, 25.02. 7:00 - 0/8 0/8 - - -
So, 25.02. 1:00 - 0/8 0/8 - - -
Sa, 24.02. 19:00 8100 m 0/8 0/8 - - -
Sa, 24.02. 13:00 1260 m 5/8 3/8 - - -
Sa, 24.02. 7:00 1020 m 8/8 8/8 - - -
Sa, 24.02. 1:00 8100 m 2/8 0/8 - - -
Fr, 23.02. 19:00 6000 m 5/8 5/8 - - -
Fr, 23.02. 13:00 8400 m 0/8 0/8 - - -
Ortszeit Bedeckungsgrad in Achtel und Wolkenuntergrenze
So, 25.02. 8:30 keine Wolken
So, 25.02. 8:20 keine Wolken
So, 25.02. 8:10 keine Wolken
So, 25.02. 8:00 2(3600m) 3(4200m)
So, 25.02. 7:50 2(3600m) 3(4200m)
So, 25.02. 7:40 3(3600m) 3(4200m)
So, 25.02. 7:30 3(3600m) 3(4200m)
So, 25.02. 7:00 keine Wolken
So, 25.02. 6:30 1(8400m)
So, 25.02. 6:00 1(8400m)
So, 25.02. 5:30 2(8400m)
Ortszeit Luftdruck NN (hPa) Tendenz (hPa in 3 Std.)
So, 25.02. 7:00 1034 - 0,1
So, 25.02. 1:00 1034 + 0,6
Sa, 24.02. 19:00 1033 + 1,2
Sa, 24.02. 13:00 1031 0,0
Sa, 24.02. 7:00 1030 + 0,7
Sa, 24.02. 1:00 1029 + 0,9
Fr, 23.02. 19:00 1027 + 0,3
Fr, 23.02. 13:00 1028 - 0,1
Ortszeit Luftdruck NN (hPa) Tendenz (hPa in 3 Std.)
So, 25.02. 8:30 1034 + 0,3
So, 25.02. 8:20 1034 keine Meldung
So, 25.02. 8:10 1034 keine Meldung
So, 25.02. 8:00 1034 + 0,1
So, 25.02. 7:50 1034 keine Meldung
So, 25.02. 7:40 1034 keine Meldung
So, 25.02. 7:30 1034 + 0,1
So, 25.02. 7:00 1034 - 0,1
So, 25.02. 6:30 1034 - 0,1
So, 25.02. 6:00 1034 - 0,2
So, 25.02. 5:30 1034 - 0,1
Ortszeit Schneehöhe (cm)
So, 25.02. 7:00 0
So, 25.02. 1:00 0
Sa, 24.02. 19:00 0
Sa, 24.02. 13:00 0
Sa, 24.02. 7:00 0
Sa, 24.02. 1:00 0
Fr, 23.02. 19:00 0
Fr, 23.02. 13:00 0
Ortszeit Schneehöhe (cm)
So, 25.02. 8:30 0
So, 25.02. 8:20 0
So, 25.02. 8:10 0
So, 25.02. 8:00 0
So, 25.02. 7:50 0
So, 25.02. 7:40 0
So, 25.02. 7:30 0
So, 25.02. 7:00 0
So, 25.02. 6:30 0
So, 25.02. 6:00 0
So, 25.02. 5:30 0
Link zu dieser Seite / Seite empfehlen

Das Wetter in ...